Regional Weather Roundup
Issued by NWS

Home | Current Version | Previous Version | Text Only | Print | Product List | Glossary On
Versions: 1 2 3 4 5 6 7 8 9 10 11 12 13 14 15 16 17 18 19 20 21 22 23 24 25 26 27 28 29 30 31 32 33 34 35 36 37 38 39 40 41 42 43 44 45 46 47 48 49 50
000
ASUS43 KOAX 261710
RWRNE

WEATHER ROUNDUP FOR NEBRASKA
NATIONAL WEATHER SERVICE OMAHA NE
1200 PM CDT WED APR 26 2017

NOTES: SATELLITE DATA IS BEING USED TO AUGMENT CLOUD COVER ABOVE
       12000 FEET.
       "FAIR" INDICATES FEW OR NO CLOUDS BELOW 12,000 FEET WITH NO
       SIGNIFICANT WEATHER AND/OR OBSTRUCTIONS TO VISIBILITY.

  * THESE STATIONS DO NOT REPORT WEATHER SUCH AS RAIN...SNOW OR FOG.

NEZ001>004-019>022-054>056-261800-
NEBRASKA PANHANDLE

CITY           SKY/WX    TMP DP  RH WIND       PRES   REMARKS
SCOTTSBLUFF    SUNNY     45  30  55 CALM      29.79F
ALLIANCE       CLOUDY    34  28  79 NW7       29.80F WCI  28
CHADRON        CLOUDY    33  27  78 CALM      29.84F
KIMBALL        SUNNY     49  29  47 N7G18     29.78F
SIDNEY         SUNNY     46  31  55 N14       29.79F
$$

NEZ057>060-069>072-079>082-261800-
SOUTHWEST NEBRASKA

CITY           SKY/WX    TMP DP  RH WIND       PRES   REMARKS
NORTH PLATTE   CLOUDY    41  29  62 NW17G29   29.79F
IMPERIAL       MOSUNNY   43  30  60 N17       29.80F
LEXINGTON      CLOUDY    40  31  69 NW21      29.77S WCI  30
MCCOOK         CLOUDY    42  29  59 NW20G28   29.79F
OGALLALA       SUNNY     43  30  58 N17       29.80S
$$

NEZ005>010-023>029-035>040-094-261800-
NORTH CENTRAL NEBRASKA

CITY           SKY/WX    TMP DP  RH WIND       PRES   REMARKS
VALENTINE      CLOUDY    36  26  67 NW16      29.80S WCI  26
AINSWORTH      CLOUDY    34  29  82 NW21G26   29.78S WCI  23
BROKEN BOW     CLOUDY    38  29  70 NW22      29.76S WCI  27
O`NEILL        CLOUDY    36  30  78 NW25      29.75S WCI  24
ORD            CLOUDY    39  30  70 NW23      29.74S WCI  28
THEDFORD       CLOUDY    35  29  78 NW22G28   29.79S WCI  24
$$

NEZ041-046>049-061>064-073>077-083>087-261800-
SOUTH CENTRAL NEBRASKA

CITY           SKY/WX    TMP DP  RH WIND       PRES   REMARKS
GRAND ISLAND   CLOUDY    39  32  76 NW24      29.75R WCI  28
AURORA         CLOUDY    40  32  74 N18G26    29.74R WCI  31
HASTINGS       CLOUDY    41  31  67 NW22G29   29.75R
HEBRON         CLOUDY    42  31  66 N15       29.74S
HOLDREGE       CLOUDY    40  29  65 N21G28    29.75S WCI  30
KEARNEY *      CLOUDY    41  28  60 NW22G31   29.75S
YORK           CLOUDY    39  32  75 NW14G20   29.74R WCI  31
$$

NEZ011>018-030>034-042>045-261800-
NORTHEAST NEBRASKA

CITY           SKY/WX    TMP DP  RH WIND       PRES   REMARKS
NORFOLK        CLOUDY    36  29  75 NW21G33   29.68R WCI  25
ALBION         CLOUDY    39  31  72 NW21G31   29.72R WCI  29
BLAIR          CLOUDY    39  33  78 NW16G22   29.69S WCI  30
FREMONT        CLOUDY    39  33  77 NW17      29.72R WCI  30
TEKAMAH        CLOUDY    41  32  70 NW16      29.70R
WAYNE          CLOUDY    36  32  86 N21G29    29.69S WCI  25
$$

NEZ050>053-065>068-078-088>093-261800-
SOUTHEAST NEBRASKA

CITY           SKY/WX    TMP DP  RH WIND       PRES   REMARKS
LINCOLN        CLOUDY    41  32  70 NW17      29.74R
OMAHA EPPLEY   CLOUDY    41  33  73 NW18      29.69R
BEATRICE       CLOUDY    41  34  75 NW18      29.71S
FALLS CITY     CLOUDY    46  35  65 NW21      29.65F
NEBRASKA CITY  CLOUDY    43  30  59 N17G24    29.68S
PLATTSMOUTH    CLOUDY    41  32  69 NW15G21   29.69R
$$

NEZ044-045-051>053-067-261800-
OMAHA AREA

CITY           SKY/WX    TMP DP  RH WIND       PRES   REMARKS
OMAHA EPPLEY   CLOUDY    41  33  73 NW18      29.69R
BLAIR          CLOUDY    39  33  78 NW16G22   29.69S WCI  30
FREMONT        CLOUDY    39  33  77 NW17      29.72R WCI  30
MILLARD        CLOUDY    42  34  72 NW13G23   29.71R
OFFUTT AFB     CLOUDY    41  33  73 NW15      29.69S
PLATTSMOUTH    CLOUDY    41  32  69 NW15G21   29.69R
WAHOO          CLOUDY    40  31  70 NW16G23   29.71S WCI  32
$$




USA.gov is the U.S. government's official web portal to all federal, state and local government web resources and services.